FW8288 Weather Reports


Display with metric or nautical units.
time (UTC)temp
F
wind
direction
speed
MPH
gust
MPH
rain 1hr
in
rain 24hr
in
rain mn
in
humidity
%
barometer
mb
20260506121601 74 0 0.0 0.0 0.00 0.00 0.00 93 1010.4
20260506120111 74 0 0.0 0.0 0.00 0.00 0.00 93 1010.4
20260506114558 74 0 0.0 0.0 0.00 0.00 0.00 93 1010.2
20260506113057 75 0 0.0 0.0 0.00 0.00 0.00 93 1009.9
20260506111600 75 0 0.0 4.0 0.00 0.00 0.00 93 1009.7
20260506110113 75 0 0.0 2.0 0.00 0.00 0.00 93 1009.6
20260506104613 75 165 0.0 1.0 0.00 0.00 0.00 93 1009.4
20260506103101 75 165 0.0 2.0 0.00 0.00 0.00 92 1009.6
20260506101558 75 165 0.0 2.0 0.00 0.00 0.00 92 1009.5
20260506100113 75 0 0.0 2.0 0.00 0.00 0.00 92 1009.4
20260506094603 75 165 0.0 2.0 0.00 0.00 0.00 91 1009.3
20260506093101 75 0 0.0 2.0 0.00 0.00 0.00 91 1009.2
20260506091607 76 165 0.0 2.0 0.00 0.00 0.00 90 1009.3
20260506090104 76 0 0.0 2.0 0.00 0.00 0.00 90 1009.5
20260506084631 76 0 0.0 1.0 0.00 0.00 0.00 90 1009.5
20260506083058 76 0 0.0 3.0 0.00 0.00 0.00 90 1009.6
20260506081600 76 165 0.0 3.0 0.00 0.00 0.00 89 1009.7
20260506073058 76 0 1.0 5.0 0.00 0.00 0.00 89 1010.0
20260506071600 77 165 1.0 4.0 0.00 0.00 0.00 89 1010.1
20260506061559 77 165 0.0 4.0 0.00 0.00 0.00 88 1010.4
20260506044559 77 165 0.0 1.0 0.00 0.00 0.00 87 1010.4
20260506043103 77 0 0.0 4.0 0.00 0.00 0.00 87 1010.4
20260506041609 77 165 1.0 3.0 0.00 0.00 0.00 87 1010.2
20260506040101 77 0 0.0 2.0 0.00 0.00 0.00 86 1010.3
20260506034600 78 165 0.0 5.0 0.00 0.00 0.00 85 1010.0
20260506033101 78 165 1.0 7.0 0.00 0.00 0.00 85 1009.9
20260506031557 78 166 1.0 4.0 0.00 0.00 0.00 84 1009.7
20260506030059 78 166 1.0 5.0 0.00 0.00 0.00 85 1009.7
20260506024605 78 166 2.0 6.0 0.00 0.00 0.00 84 1009.5
20260506023108 78 166 1.0 5.0 0.00 0.00 0.00 84 1009.4
20260506021622 78 166 1.0 6.0 0.00 0.00 0.00 83 1009.0
20260506020100 79 167 1.0 9.0 0.00 0.00 0.00 82 1008.9
20260506014557 79 167 0.0 6.0 0.00 0.00 0.00 82 1008.6
20260506013109 79 166 1.0 6.0 0.00 0.00 0.00 81 1008.4
20260506011615 79 167 0.0 8.0 0.00 0.00 0.00 80 1008.1
20260506010100 80 166 2.0 6.0 0.00 0.00 0.00 79 1008.1
20260506004601 80 167 1.0 7.0 0.00 0.00 0.00 78 1008.0
20260506003101 80 167 1.0 8.0 0.00 0.00 0.00 76 1007.8
20260506001603 81 167 2.0 6.0 0.00 0.00 0.00 75 1007.7
20260505234604 81 0 1.0 9.0 0.00 0.00 0.00 75 1007.7
20260505233106 81 166 3.0 8.0 0.00 0.00 0.00 75 1007.7
20260505231613 82 167 2.0 7.0 0.00 0.00 0.00 75 1007.6
20260505230100 82 167 3.0 9.0 0.00 0.00 0.00 75 1007.7
20260505224604 82 168 2.0 7.0 0.00 0.00 0.00 75 1007.7
20260505223059 82 167 3.0 8.0 0.00 0.00 0.00 75 1007.8
20260505221604 83 166 3.0 8.0 0.00 0.00 0.00 75 1007.9
20260505214601 83 166 2.0 9.0 0.00 0.00 0.00 73 1008.1
20260505213059 83 167 3.0 10.0 0.00 0.00 0.00 73 1008.2
20260505211557 83 166 3.0 7.0 0.00 0.00 0.00 74 1008.5
20260505210058 83 167 1.0 5.0 0.00 0.00 0.00 74 1008.8
20260505204600 83 167 3.0 9.0 0.00 0.00 0.00 73 1009.1
20260505203126 84 166 4.0 9.0 0.00 0.00 0.00 71 1009.1
20260505201604 84 0 2.0 6.0 0.00 0.00 0.00 73 1009.3
20260505200100 83 167 2.0 11.0 0.00 0.00 0.00 72 1009.5
20260505194604 84 167 1.0 7.0 0.00 0.00 0.00 74 1009.6
20260505193103 82 169 3.0 9.0 0.00 0.00 0.00 74 1009.7
20260505191611 83 166 2.0 7.0 0.00 0.00 0.00 74 1009.9
20260505190058 82 166 3.0 8.0 0.00 0.00 0.00 75 1009.9
20260505184559 82 0 2.0 7.0 0.00 0.00 0.00 76 1010.0
20260505183101 82 166 2.0 6.0 0.00 0.00 0.00 75 1010.1
20260505181557 82 166 2.0 6.0 0.00 0.00 0.00 76 1010.2
20260505180103 81 166 1.0 7.0 0.00 0.00 0.00 77 1010.3
20260505174605 80 166 2.0 6.0 0.00 0.00 0.00 78 1010.4
20260505173100 80 167 1.0 6.0 0.00 0.00 0.00 79 1010.7
20260505171556 80 167 2.0 6.0 0.00 0.00 0.00 79 1010.5
20260505170111 80 167 3.0 9.0 0.00 0.00 0.00 78 1010.5
20260505164558 80 166 2.0 7.0 0.00 0.00 0.00 78 1010.7
20260505163102 79 166 2.0 7.0 0.00 0.00 0.00 81 1010.6
20260505161616 78 166 3.0 8.0 0.00 0.00 0.00 82 1010.6
20260505153106 77 166 3.0 7.0 0.00 0.00 0.00 84 1010.3
20260505151606 77 166 3.0 7.0 0.00 0.00 0.00 84 1010.4
20260505140105 75 166 1.0 4.0 0.00 0.00 0.00 88 1010.2
20260505130110 73 166 0.0 3.0 0.00 0.00 0.00 91 1010.0
20260505124611 72 166 0.0 2.0 0.00 0.00 0.00 91 1010.1
20260505123104 71 0 0.0 2.0 0.00 0.00 0.00 92 1009.8